OPS 4682 DEB, 38437

Orbit data source: Space-Track

OPS 4682 DEB, 38437 is space debris in LEO originally from a launch on Sat, 03 Apr 1965 UTC launched from the Air Force Western Test Range (AFWTR). Debris objects in space refer to the collection of defunct objects orbiting the Earth. Examples of debris include non-operational satellites, rocket bodies, and fragments generated from explosions, collisions, or faulty payload assembly.

Loading next visibility...
Identifier
38437, 1965-027ES
Orbit
LEO
Country
Flag of USUS
Related business
Manufacturer
Unknown
Mission
Spacecraft
Bus & Motor
Unknown
Mass
Unknown
Launch date (UTC)
1965-04-03 (61 years ago)
Launch vehicle
Unknown
Launch site
Air Force Western Test Range (AFWTR)
Object type
Payload
Rocket body
Debris
Shape & HBR
Unknown shape, 0.1 m
Radar Cross Section
Small (<0.1 m²)

Expand to show TLE details & history
Last TLE update: 2 days ago

TLE from 2 days ago
0 OPS 4682 DEB
1 38437U 65027ES  26118.13670030  .00000726  00000-0  25267-2 0  9992
2 38437  90.2382   4.5809 0037854 301.1910  58.5502 12.95906521544063
Epoch: 2026-04-28T03:16Z
TLE epoch observation values (Epoch: 2026-04-28T03:16:50.905Z)
Latitude
0.00003°
Longitude
99.25246°
Altitude
1,266.001 km
Speed
7.23 km/s
True Right ascension
00h 18m 19s
True Declination
0° 00' 00"
Sunlit
Object was in daylight at epoch
Visualization orbit readout
Latitude
Unknown
Longitude
Unknown
Altitude
Unknown
Speed
Unknown
Apparent Right ascension
Unknown
Apparent Declination
Unknown
Sunlit
N/A
Visualization observer readout
Local Sidereal Time
01:44:26
Azimuth
Unknown
Elevation
Unknown
Doppler factor
Unknown
Orbital elements
Apogee altitude
1,304.272 km
Perigee altitude
1,246.329 km
Semi-major axis
7,653.437 km
Eccentricity
0.00379
Inclination
90.2382°
RAAN
4.5809°
Arg. of periapsis
301.191°
True anomaly
58.92117°
Mean anomaly
58.5502°
Eccentric anomaly
58.73559°
Mean motion
3.24159 °/min
Orbital period
111.06 mins
BSTAR
0.0025267
Loading maneuver chart data...
Computing Atmospheric mass density...
Loading historical data...
Loading historical data...
Loading historical data...
Loading historical data...
Loading historical data...
Loading historical data...
Loading historical data...

Documentation

Showing up to 5 results
|